Regional Weather Roundup
Issued by NWS Albany, NY

Home | Current Version | Previous Version | Graphics & Text | Print | Product List | Glossary Off
Versions: 1 2 3 4 5 6 7 8 9 10 11 12 13 14 15 16 17 18 19 20 21 22 23 24 25 26 27 28 29 30 31 32 33 34 35 36 37 38 39 40 41 42 43 44 45 46 47 48 49 50

000
ASUS41 KALY 211210
RWRALY

NEW YORK STATE HOURLY WEATHER ROUNDUP
NATIONAL WEATHER SERVICE ALBANY NY
700 AM EST SAT JAN 21 2017

NOTE: "FAIR" INDICATES FEW OR NO CLOUDS BELOW 12,000 FEET WITH NO
SIGNIFICANT WEATHER AND/OR NO OBSTRUCTIONS TO VISIBILITY.

NYZ032-033-038>043-046>054-057>066-NYZ062>081-082-084-211300-
EAST


CITY           SKY/WX    TMP DP  RH WIND       PRES   REMARKS
ALBANY         DRIZZLE   39  36  89 S6        29.85S WCI  35
GLENS FALLS    FOG       35  33  92 CALM      29.83S VSB 1/2
POUGHKEEPSIE   CLOUDY    40  38  93 CALM      29.86R
NEWBURGH       MOCLDY    39  39 100 SW6       29.87S WCI  35
MONTGOMERY     CLOUDY    40  38  93 SW6       29.85S
WHITE PLAINS     N/A     41  39  93 W7        29.86R FOG
ISLIP          CLOUDY    42  42 100 SW3       29.88S FOG
NEW YORK CITY  CLOUDY    45  41  86 W3        29.88S
CENTRAL PARK   CLOUDY    42  40  92 VRB7      29.90S
$$

NYZ005>009-017-018-044>046-055-056-211300-
CENTRAL


CITY           SKY/WX    TMP DP  RH WIND       PRES   REMARKS
FULTON         CLOUDY    38  37  97 CALM      29.81S FOG
SYRACUSE       CLOUDY    37  37 100 CALM      29.82R
ROME           CLOUDY    37  37 100 CALM      29.83S
ELMIRA         FOG       37  34  89 NE3       29.84R VSB 1
BINGHAMTON     FOG       38  38 100 SW5       29.81S VSB 1   WCI  34
MONTICELLO     CLEAR     36  34  93 CALM      29.86R
$$

NYZ026>034-041>043-087-211300-
NORTH


CITY           SKY/WX    TMP DP  RH WIND       PRES   REMARKS
WATERTOWN      CLOUDY    44  43  96 SW9       29.79R
FORT DRUM      NOT AVBL
OGDENSBURG     DRIZZLE   37  36  97 CALM      29.77R
MASSENA        CLOUDY    33  33 100 NE3       29.79S FOG
SARANAC LAKE   CLOUDY    34  33  96 SW6       29.74S FOG     WCI  29
PLATTSBURGH    CLOUDY    33  31  92 CALM      29.80F FOG
$$

NYZ001>004-010>016-019>021-085-211300-
WEST


CITY           SKY/WX    TMP DP  RH WIND       PRES   REMARKS
NIAGARA FALLS  FOG       42  40  92 CALM      29.79S VSB 1
BUFFALO        FOG       43  42  97 S6        29.79F VSB 1/4
DUNKIRK        CLOUDY    43  43 100 E5        29.79F FOG
JAMESTOWN      MOCLDY    46  45  93 S7        29.80R
WELLSVILLE     CLOUDY    47  45  93 SW9       29.82R FOG
ROCHESTER      DRIZZLE   45  43  93 W3        29.81R
PENN YAN       CLOUDY    43  38  82 SW8       29.82R
$$

             KEY
       WCI = WIND CHILL INDEX
       VSB = VISIBILITY
       HX  = HEAT INDEX
$$



USA.gov is the U.S. government's official web portal to all federal, state and local government web resources and services.